RH
60 63 63 57 52 53 56 60 64 68 72 75 81 87 93 81 94 91 95 94 91 97 89 90 86 89 92 92 93 94 93 88 96 83 78 75 79 82 91 86 99 100 99
55 59 62 56 54 56 58 60 62 68 70 76 82 92 87 87 93 93 97 96 97 97 94 85 89 91 93 95 96 91 94 90 96 94 82 75 77 94 96 89 97 100 100
50 53 60 59 56 58 60 61 62 68 69 77 84 94 82 92 94 98 100 99 96 98 97 93 95 94 93 92 96 94 89 95 96 96 87 84 90 97 94 95 94 98 100
50 56 60 59 56 60 62 61 61 65 70 77 84 96 83 92 96 98 100 92 90 98 98 96 96 95 95 96 96 94 96 94 94 96 94 94 96 95 92 98 93 94 99
53 55 56 55 55 62 61 61 59 62 68 75 85 93 88 96 93 100 96 84 96 98 97 95 95 96 95 96 98 95 96 95 97 95 91 93 95 89 93 95 97 99 99
52 52 53 54 55 61 59 60 57 60 66 70 87 92 93 94 90 89 89 89 99 99 95 93 96 95 97 95 95 95 95 97 96 95 94 96 96 94 93 95 99 99 99
49 50 54 57 56 60 62 59 59 60 64 71 91 90 92 94 93 89 90 97 99 99 96 95 95 95 96 95 95 96 96 96 95 96 95 97 91 96 96 96 97 99 98
50 52 55 55 57 63 62 57 61 62 68 77 89 89 89 97 94 92 86 96 94 99 97 97 97 94 97 97 96 95 96 96 95 96 97 96 97 97 96 96 96 98 99
56 55 55 55 60 62 57 61 66 68 75 80 86 89 95 95 97 98 92 100 94 98 98 95 98 97 100 97 96 96 96 96 95 96 96 97 97 97 96 98 98 98 98
58 56 58 51 54 55 61 68 71 73 78 79 76 83 89 96 91 100 100 100 92 100 97 94 95 98 98 99 95 96 95 96 95 96 96 97 98 98 96 96 98 98 96
54 59 56 54 45 58 68 70 72 71 70 73 75 77 86 91 71 98 100 100 98 100 96 95 97 100 100 100 96 97 98 97 96 96 96 96 97 97 98 96 97 97 96
28 47 54 46 51 66 66 55 41 48 50 61 74 59 70 60 72 91 100 98 94 95 98 97 96 99 100 100 97 97 95 94 96 97 96 96 96 97 98 98 98 95 94
27 41 42 47 30 38 44 7 6 6 9 12 25 33 48 59 80 87 88 91 93 95 98 97 97 96 94 94 98 96 90 91 94 97 97 97 97 98 98 98 99 99 98
47 47 49 42 50 31 11 7 6 6 7 7 11 27 47 62 79 85 87 92 94 94 94 95 96 96 95 95 94 94 95 95 96 97 98 98 96 95 96 97 99 100 96
44 46 47 47 53 60 58 36 19 13 11 10 10 23 43 63 94 100 100 99 96 94 93 93 90 88 91 93 95 96 95 95 94 96 96 97 91 96 96 97 96 99 98
42 27 44 47 53 60 69 69 42 31 33 21 19 14 32 51 74 87 99 100 88 82 79 90 94 94 95 95 95 96 95 96 96 96 96 96 97 97 97 97 95 90 97
44 47 48 47 38 40 50 51 50 48 46 34 30 17 28 32 51 63 73 85 76 74 82 98 97 95 96 96 96 96 96 96 96 96 96 97 96 97 95 96 97 99 98
28 46 44 40 38 48 48 52 53 50 47 34 21 18 33 28 30 46 56 58 58 66 92 100 100 100 96 96 96 96 96 95 96 96 96 96 96 96 96 97 95 95 96
50 47 26 11 21 36 43 43 47 45 42 22 11 17 18 20 12 23 37 47 60 67 74 83 87 94 98 100 98 96 96 95 96 96 96 96 96 96 96 96 96 96 96
11 25 42 33 29 30 30 33 34 37 37 28 12 13 16 15 10 8 11 24 37 47 54 58 64 64 70 81 94 94 93 95 95 96 96 96 96 95 96 96 96 95 96
12 12 28 31 16 21 29 27 23 28 27 25 19 13 13 15 14 12 10 8 9 15 22 30 37 46 56 64 79 82 87 97 99 95 94 95 95 96 96 96 96 96 94
33 26 27 16 17 11 16 25 14 15 15 14 14 12 12 13 14 14 13 11 10 8 8 9 12 18 33 51 60 69 72 77 94 100 100 98 97 95 97 95 95 99 97
46 25 23 14 8 11 9 11 9 8 9 9 10 10 11 12 12 13 14 14 13 11 10 9 8 8 9 18 40 53 57 60 72 80 80 81 90 91 92 96 97 95 96
44 26 32 10 7 9 7 7 8 8 8 8 8 9 9 10 11 12 13 14 15 14 13 12 11 10 9 8 8 15 35 46 51 53 54 56 63 73 76 78 90 96 98
46 38 23 11 8 7 7 7 7 8 8 8 8 8 8 9 10 10 11 12 13 14 15 15 14 13 12 11 10 9 8 8 11 20 27 33 38 45 53 59 61 58 70
40 27 23 14 11 8 7 7 7 7 8 8 8 8 9 9 9 9 10 11 12 13 14 15 16 16 15 15 14 13 12 11 10 9 8 8 8 8 9 12 15 20 20
Wind_Speed
5 6 7 9 10 11 12 13 15 14 15 16 17 17 19 26 20 23 23 25 15 18 20 21 20 18 18 19 19 19 20 20 23 24 21 19 20 19 15 16 16 12 11
5 6 7 9 11 11 12 14 15 15 15 15 17 17 24 21 20 26 25 24 16 18 20 22 20 20 20 20 19 20 19 18 19 22 20 18 19 17 14 14 11 10 10
4 5 7 9 10 12 13 14 15 15 15 16 16 20 30 21 22 30 28 20 15 18 19 21 21 21 23 18 22 20 19 17 16 16 19 16 17 15 13 9 7 7 5
4 4 8 10 11 12 13 14 15 15 15 16 16 21 28 23 24 33 26 18 15 19 19 21 21 22 19 22 22 19 19 16 12 13 13 14 14 14 10 8 5 4 6
4 6 8 10 11 13 14 15 15 15 15 15 16 22 24 21 30 31 23 18 21 20 19 20 21 20 19 22 19 15 16 12 11 9 10 10 14 14 11 7 5 2 1
5 7 8 10 11 13 14 15 16 15 16 16 17 22 23 24 30 30 17 18 21 19 21 21 23 24 22 23 12 11 11 14 11 7 7 11 13 12 9 3 6 1 5
5 6 8 10 12 13 14 15 16 15 16 17 17 22 23 25 30 29 16 17 19 20 22 23 25 26 25 25 14 12 11 8 9 9 10 10 11 12 6 2 1 2 5
6 7 9 10 11 13 15 16 15 15 16 16 18 22 23 25 30 28 24 19 14 19 22 22 24 26 27 25 19 11 11 9 7 10 10 9 10 11 4 1 3 4 6
6 8 10 10 12 14 16 16 16 15 15 16 19 22 25 27 30 27 26 24 19 20 22 24 25 26 26 24 20 17 13 11 8 11 8 11 8 8 1 5 3 6 5
7 7 8 10 13 15 15 15 14 14 14 15 18 19 23 28 29 26 26 24 23 22 24 25 25 25 23 23 19 17 17 15 14 13 12 12 11 8 2 4 6 8 9
6 6 8 10 12 14 13 14 13 14 14 14 16 15 17 24 28 24 26 25 24 22 25 27 24 24 22 22 17 16 15 14 15 15 14 17 16 15 10 5 6 7 7
4 7 11 14 12 12 13 13 14 14 15 15 15 19 20 25 27 26 26 22 20 22 25 23 22 22 22 22 18 15 14 16 18 19 17 20 20 18 17 14 9 7 6
9 14 11 9 12 13 13 20 22 22 23 24 22 24 26 29 28 28 26 21 21 22 21 21 21 22 22 24 21 19 19 20 21 22 20 21 21 18 18 20 18 13 12
12 11 8 11 11 17 20 22 24 26 27 28 28 28 29 31 28 28 28 26 24 23 23 24 25 25 26 26 26 24 24 22 22 22 20 19 18 18 20 21 24 22 21
6 6 7 7 8 12 15 19 22 24 26 28 29 29 31 32 28 25 26 27 26 24 24 27 30 32 32 31 30 29 28 25 24 22 23 23 20 18 20 22 25 28 30
2 5 9 5 7 7 10 14 17 22 24 26 27 26 29 28 24 21 22 24 25 25 27 30 32 33 34 32 31 30 30 28 26 23 23 23 24 22 18 21 21 22 26
4 5 5 5 7 9 11 13 16 20 21 23 24 23 27 28 26 22 22 23 25 26 30 29 30 32 32 31 29 30 30 29 25 24 23 24 24 24 23 22 24 25 23
6 7 4 6 8 9 11 11 13 15 16 18 19 19 24 26 25 25 24 24 28 30 30 29 29 29 29 29 28 29 29 29 29 26 24 24 25 26 26 26 26 28 26
7 4 3 7 9 9 9 10 10 12 13 16 19 18 21 22 24 26 26 29 30 30 30 30 28 28 26 25 25 27 27 28 29 27 25 24 25 26 26 28 28 30 32
4 5 6 5 6 7 8 9 10 11 12 15 19 21 20 22 26 27 28 28 29 29 29 30 30 30 29 26 23 26 27 28 29 28 25 24 25 26 27 25 26 26 28
4 4 6 3 4 6 6 8 9 10 11 13 15 17 19 20 22 24 26 27 28 27 28 28 29 31 31 29 25 24 26 27 28 26 24 22 22 24 24 27 27 26 23
2 3 3 3 4 4 5 6 8 9 10 11 12 14 16 17 19 21 22 23 25 25 26 27 28 29 30 30 28 25 24 26 27 25 24 22 22 24 25 25 27 28 29
4 2 2 2 3 3 5 5 7 8 9 10 11 12 14 15 16 18 19 20 21 22 23 24 25 27 27 27 28 27 25 24 25 23 23 24 24 22 24 27 27 27 28
5 4 3 0 1 2 4 5 6 7 8 9 10 11 12 13 14 15 16 16 17 19 20 22 23 24 25 25 26 26 24 24 24 24 24 23 23 24 24 23 26 27 28
8 6 4 3 1 2 3 4 6 6 7 8 8 9 10 10 11 12 13 14 15 16 17 18 19 20 21 22 23 24 22 23 21 20 21 22 24 24 24 25 24 23 24
8 6 5 5 2 3 4 4 5 6 7 7 8 8 8 9 9 10 10 12 12 13 14 15 16 17 18 19 20 21 20 20 21 21 21 21 22 24 25 26 25 26 25
Wind_Direction
17 2 8 3 8 9 2 355 345 349 346 346 343 350 322 330 352 342 344 340 344 342 334 332 330 330 326 320 318 312 308 310 307 304 307 312 317 321 323 312 305 297 264
13 16 8 8 10 8 3 356 350 352 350 348 349 332 330 350 347 345 344 345 351 340 333 336 334 329 324 321 321 315 310 312 306 305 307 313 318 326 325 317 309 291 255
47 20 3 13 12 7 3 357 353 355 350 351 357 328 343 358 340 348 347 350 351 339 333 335 332 327 325 328 325 320 318 313 305 304 303 311 317 334 331 324 314 316 232
48 18 19 12 13 4 2 357 355 357 352 354 353 335 353 353 344 352 352 -0 359 345 339 335 334 333 340 333 327 322 323 313 305 304 308 313 333 338 329 337 315 315 208
52 32 22 15 9 4 2 359 358 1 356 356 350 346 355 348 350 351 356 9 1 349 343 341 343 346 343 333 331 325 331 331 326 308 313 323 339 337 333 335 313 287 223
52 36 21 18 9 7 2 2 5 1 360 4 354 353 354 346 349 354 5 10 358 349 348 348 347 352 347 348 349 341 327 322 320 335 325 337 331 325 312 292 357 297 232
49 29 24 20 10 7 6 7 8 4 4 8 357 355 355 347 350 357 11 16 2 358 350 351 350 356 354 358 1 358 1 357 354 349 344 328 334 342 337 353 49 208 221
41 30 23 22 8 11 9 12 9 9 8 9 1 356 358 350 349 0 11 17 14 360 356 356 354 360 1 1 7 9 23 351 357 10 346 351 349 346 341 344 178 118 167
54 31 23 19 13 16 11 12 11 10 10 10 3 2 360 356 352 4 7 13 21 14 5 5 5 8 2 4 12 21 25 30 37 17 12 9 9 353 139 105 157 163 164
51 31 28 23 22 17 17 11 14 11 11 16 12 13 2 353 354 6 8 11 15 17 15 10 12 7 8 11 16 24 31 34 31 31 37 43 36 24 89 154 108 162 166
59 33 32 44 26 18 18 11 18 19 12 17 15 5 2 350 2 11 11 13 13 20 17 5 14 12 16 19 26 36 38 46 50 49 50 53 50 58 71 126 153 154 172
65 63 48 35 34 34 16 22 25 32 22 24 22 11 11 8 11 20 18 20 20 25 20 12 23 23 29 26 36 45 51 56 58 55 57 54 57 64 74 77 91 133 137
78 66 62 34 34 43 33 38 40 40 37 32 30 23 20 16 23 27 28 25 29 31 24 31 36 38 41 43 44 48 54 56 56 56 60 58 67 76 80 86 83 86 111
68 68 34 53 13 35 38 40 39 39 37 33 30 26 22 20 24 28 26 27 32 35 37 42 46 50 51 51 50 53 55 56 57 60 67 71 79 81 86 89 91 95 95
83 76 54 50 49 7 23 29 32 35 33 31 28 26 23 20 19 27 23 26 29 35 43 48 47 48 48 49 51 54 56 57 60 66 72 75 75 83 79 87 91 97 99
80 94 94 60 49 59 26 17 29 33 27 27 25 26 28 24 22 31 29 28 36 38 45 47 45 45 44 44 47 53 56 57 59 66 72 79 78 82 85 82 91 97 99
110 64 66 72 58 51 48 36 32 29 21 17 18 25 31 24 28 33 41 39 40 42 44 43 44 42 41 42 49 53 56 59 62 67 73 78 81 81 85 86 88 96 100
116 101 76 72 63 48 43 42 28 31 22 13 12 27 34 25 31 35 41 45 45 45 41 40 42 42 40 42 47 53 59 62 63 66 71 77 79 80 84 90 92 91 92
154 141 87 76 68 60 50 42 40 34 28 21 28 35 43 33 37 40 41 43 41 42 41 41 42 44 42 46 53 58 59 62 63 65 70 75 80 84 86 87 91 94 94
141 134 103 68 64 55 50 47 39 39 33 23 28 30 36 37 40 40 42 43 43 43 43 43 43 44 46 47 54 61 65 63 62 63 69 76 81 84 87 88 90 89 92
145 125 109 96 72 62 50 44 39 36 34 29 24 27 33 37 40 40 40 43 43 42 44 44 46 45 47 49 53 58 66 68 69 66 69 78 82 85 90 94 93 92 97
202 136 125 93 66 57 49 40 39 34 32 30 30 29 32 36 40 42 42 43 44 43 43 45 45 47 46 48 51 52 62 68 68 70 76 85 89 93 96 98 100 100 101
200 172 133 104 73 52 42 32 34 32 28 28 26 32 30 34 35 38 41 42 45 45 45 45 47 49 48 48 51 52 55 62 66 68 73 82 90 93 98 101 100 103 103
221 183 215 183 42 31 25 22 24 30 26 26 23 27 27 30 32 32 36 39 41 45 45 45 45 47 48 49 51 52 54 60 65 69 74 77 84 91 94 94 101 103 102
231 207 234 266 302 349 360 6 10 11 16 17 19 18 23 22 28 29 29 32 36 42 44 46 46 47 48 49 51 51 51 59 61 68 72 78 83 86 89 92 90 92 100
244 223 239 261 288 311 331 345 352 357 3 7 9 8 13 15 16 22 26 27 28 34 40 44 45 46 48 50 52 54 52 58 62 66 70 77 80 85 88 90 94 98 98